Time,TemperatureF,DewpointF,PressureIn,WindDirection,WindDirectionDegrees,WindSpeedMPH,WindSpeedGustMPH,Humidity,HourlyPrecipIn,Conditions,Clouds,dailyrainin,SoftwareType,DateUTC
2013-10-09 00:01:00,47.1,17.3,29.97,NNW,334,0.0,0.0,30,0.00,,---,0.00,VWS V13.01,2013-10-09 04:01:00,
2013-10-09 00:03:00,47.1,17.3,29.97,NNW,334,0.0,0.0,30,0.00,,---,0.00,VWS V13.01,2013-10-09 04:03:00,
2013-10-09 00:04:00,47.1,17.3,29.97,NNW,334,0.0,0.0,30,0.00,,---,0.00,VWS V13.01,2013-10-09 04:04:00,
2013-10-09 00:05:00,47.1,17.3,29.97,NNW,334,0.0,0.0,30,0.00,,---,0.00,VWS V13.01,2013-10-09 04:05:00,
2013-10-09 00:11:00,46.9,17.1,29.97,NNW,335,0.0,0.0,30,0.00,,---,0.00,VWS V13.01,2013-10-09 04:11:00,
2013-10-09 00:16:00,46.9,17.1,30.00,NNW,335,0.0,0.0,30,0.00,,---,0.00,VWS V13.01,2013-10-09 04:16:00,
2013-10-09 00:21:00,46.8,17.0,30.00,NNW,334,0.0,0.0,30,0.00,,---,0.00,VWS V13.01,2013-10-09 04:21:00,
2013-10-09 00:26:00,46.6,16.8,30.00,NNW,334,0.0,0.0,30,0.00,,---,0.00,VWS V13.01,2013-10-09 04:26:00,
2013-10-09 00:31:00,46.4,16.7,30.00,NNW,334,0.0,0.0,30,0.00,,---,0.00,VWS V13.01,2013-10-09 04:31:00,
2013-10-09 00:36:00,46.4,16.7,30.00,NNW,334,0.0,0.0,30,0.00,,---,0.00,VWS V13.01,2013-10-09 04:36:00,
2013-10-09 00:41:00,46.4,16.7,30.00,NNW,334,0.0,0.0,30,0.00,,---,0.00,VWS V13.01,2013-10-09 04:41:00,
2013-10-09 00:47:00,46.4,17.4,30.00,NNW,334,0.0,0.0,31,0.00,,---,0.00,VWS V13.01,2013-10-09 04:47:00,
2013-10-09 00:52:00,46.4,17.4,30.00,NNW,334,0.0,0.0,31,0.00,,---,0.00,VWS V13.01,2013-10-09 04:52:00,
2013-10-09 00:57:00,46.4,17.4,30.00,NNW,334,0.0,0.0,31,0.00,,---,0.00,VWS V13.01,2013-10-09 04:57:00,
2013-10-09 01:02:00,46.4,17.4,30.00,NNW,334,0.0,0.0,31,0.00,,---,0.00,VWS V13.01,2013-10-09 05:02:00,
2013-10-09 01:07:00,46.4,17.4,30.00,NNW,334,0.0,0.0,31,0.00,,---,0.00,VWS V13.01,2013-10-09 05:07:00,
2013-10-09 01:12:00,46.4,17.4,30.00,NNW,334,0.0,0.0,31,0.00,,---,0.00,VWS V13.01,2013-10-09 05:12:00,
2013-10-09 01:17:00,46.2,18.0,30.00,NNW,334,0.0,0.0,32,0.00,,---,0.00,VWS V13.01,2013-10-09 05:17:00,
2013-10-09 01:23:00,46.2,17.3,30.00,NNW,334,0.0,0.0,31,0.00,,---,0.00,VWS V13.01,2013-10-09 05:23:00,
2013-10-09 01:28:00,46.2,17.3,30.00,NNW,334,0.0,0.0,31,0.00,,---,0.00,VWS V13.01,2013-10-09 05:28:00,
2013-10-09 01:33:00,46.2,17.3,30.00,NNW,334,0.0,0.0,31,0.00,,---,0.00,VWS V13.01,2013-10-09 05:33:00,
2013-10-09 01:38:00,46.0,17.1,30.00,NNW,334,0.0,0.0,31,0.00,,---,0.00,VWS V13.01,2013-10-09 05:38:00,
2013-10-09 01:43:00,45.9,17.0,30.00,NNW,335,0.0,0.0,31,0.00,,---,0.00,VWS V13.01,2013-10-09 05:43:00,
2013-10-09 01:48:00,45.9,17.0,30.00,NNW,334,0.0,0.0,31,0.00,,---,0.00,VWS V13.01,2013-10-09 05:48:00,
2013-10-09 01:53:00,45.7,16.8,30.00,NNW,334,0.0,0.0,31,0.00,,---,0.00,VWS V13.01,2013-10-09 05:53:00,
2013-10-09 01:59:00,45.5,16.6,30.00,NNW,334,0.0,0.0,31,0.00,,---,0.00,VWS V13.01,2013-10-09 05:59:00,
2013-10-09 02:04:00,45.5,16.6,30.00,NNW,335,0.0,0.0,31,0.00,,---,0.00,VWS V13.01,2013-10-09 06:04:00,
2013-10-09 02:09:00,45.5,17.4,30.00,NNW,334,0.0,0.0,32,0.00,,---,0.00,VWS V13.01,2013-10-09 06:09:00,
2013-10-09 02:14:00,45.3,17.2,30.00,NNW,334,0.0,0.0,32,0.00,,---,0.00,VWS V13.01,2013-10-09 06:14:00,
2013-10-09 02:19:00,45.3,17.9,30.00,NNW,334,0.0,0.0,33,0.00,,---,0.00,VWS V13.01,2013-10-09 06:19:00,
2013-10-09 02:24:00,45.3,17.9,30.00,NNW,334,0.0,0.0,33,0.00,,---,0.00,VWS V13.01,2013-10-09 06:24:00,
2013-10-09 02:29:00,45.3,17.9,30.00,NNW,334,0.0,0.0,33,0.00,,---,0.00,VWS V13.01,2013-10-09 06:29:00,
2013-10-09 02:34:00,45.3,17.9,30.00,NNW,334,0.0,0.0,33,0.00,,---,0.00,VWS V13.01,2013-10-09 06:34:00,
2013-10-09 02:40:00,45.3,17.9,30.00,NNW,334,0.0,0.0,33,0.00,,---,0.00,VWS V13.01,2013-10-09 06:40:00,
2013-10-09 02:45:00,45.3,17.9,30.00,NNW,334,0.0,0.0,33,0.00,,---,0.00,VWS V13.01,2013-10-09 06:45:00,
2013-10-09 02:50:00,45.3,17.9,30.00,NNW,334,0.0,0.0,33,0.00,,---,0.00,VWS V13.01,2013-10-09 06:50:00,
2013-10-09 02:55:00,45.1,17.8,30.00,NNW,334,0.0,0.0,33,0.00,,---,0.00,VWS V13.01,2013-10-09 06:55:00,
2013-10-09 03:00:00,45.1,17.8,30.00,NNW,334,0.0,0.0,33,0.00,,---,0.00,VWS V13.01,2013-10-09 07:00:00,
2013-10-09 03:05:00,45.0,16.9,30.00,NNW,334,0.0,0.0,32,0.00,,---,0.00,VWS V13.01,2013-10-09 07:05:00,
2013-10-09 03:10:00,44.8,16.7,30.00,NNW,334,0.0,0.0,32,0.00,,---,0.00,VWS V13.01,2013-10-09 07:10:00,
2013-10-09 03:15:00,44.8,17.5,30.00,NNW,334,0.0,0.0,33,0.00,,---,0.00,VWS V13.01,2013-10-09 07:15:00,
2013-10-09 03:20:00,44.6,17.3,30.00,NNW,334,0.0,0.0,33,0.00,,---,0.00,VWS V13.01,2013-10-09 07:20:00,
2013-10-09 03:26:00,44.6,17.3,30.00,NNW,334,0.0,0.0,33,0.00,,---,0.00,VWS V13.01,2013-10-09 07:26:00,
2013-10-09 03:31:00,44.4,17.1,30.00,NNW,335,0.0,0.0,33,0.00,,---,0.00,VWS V13.01,2013-10-09 07:31:00,
2013-10-09 03:36:00,44.4,17.8,30.00,NNW,334,0.0,0.0,34,0.00,,---,0.00,VWS V13.01,2013-10-09 07:36:00,
2013-10-09 03:41:00,44.2,17.7,30.00,NNW,334,0.0,0.0,34,0.00,,---,0.00,VWS V13.01,2013-10-09 07:41:00,
2013-10-09 03:46:00,44.1,17.5,30.00,NNW,334,0.0,0.0,34,0.00,,---,0.00,VWS V13.01,2013-10-09 07:46:00,
2013-10-09 03:51:00,43.9,17.4,30.00,NNW,334,0.0,0.0,34,0.00,,---,0.00,VWS V13.01,2013-10-09 07:51:00,
2013-10-09 03:56:00,43.5,17.0,30.00,NNW,334,0.0,0.0,34,0.00,,---,0.00,VWS V13.01,2013-10-09 07:56:00,
2013-10-09 04:01:00,43.5,17.0,30.00,NNW,334,0.0,0.0,34,0.00,,---,0.00,VWS V13.01,2013-10-09 08:01:00,
2013-10-09 04:06:00,43.5,17.0,30.00,NNW,334,0.0,0.0,34,0.00,,---,0.00,VWS V13.01,2013-10-09 08:06:00,
2013-10-09 04:11:00,43.5,17.0,30.00,NNW,334,0.0,0.0,34,0.00,,---,0.00,VWS V13.01,2013-10-09 08:11:00,
2013-10-09 04:17:00,43.5,17.7,30.00,NNW,334,0.0,0.0,35,0.00,,---,0.00,VWS V13.01,2013-10-09 08:17:00,
2013-10-09 04:22:00,43.5,17.7,30.00,NNW,334,0.0,0.0,35,0.00,,---,0.00,VWS V13.01,2013-10-09 08:22:00,
2013-10-09 04:27:00,43.5,17.7,30.00,NNW,334,0.0,0.0,35,0.00,,---,0.00,VWS V13.01,2013-10-09 08:27:00,
2013-10-09 04:32:00,43.5,17.7,30.00,NNW,334,0.0,0.0,35,0.00,,---,0.00,VWS V13.01,2013-10-09 08:32:00,
2013-10-09 04:37:00,43.5,18.4,30.00,NNW,335,0.0,0.0,36,0.00,,---,0.00,VWS V13.01,2013-10-09 08:37:00,
2013-10-09 04:42:00,43.7,18.5,30.00,NNW,334,0.0,0.0,36,0.00,,---,0.00,VWS V13.01,2013-10-09 08:42:00,
2013-10-09 04:47:00,43.7,18.5,30.00,NNW,334,0.0,0.0,36,0.00,,---,0.00,VWS V13.01,2013-10-09 08:47:00,
2013-10-09 04:52:00,43.7,18.5,30.00,NNW,334,0.0,0.0,36,0.00,,---,0.00,VWS V13.01,2013-10-09 08:52:00,
2013-10-09 04:57:00,43.9,18.7,30.00,NNW,334,0.0,0.0,36,0.00,,---,0.00,VWS V13.01,2013-10-09 08:57:00,
2013-10-09 05:02:00,43.9,18.7,30.00,NNW,334,0.0,0.0,36,0.00,,---,0.00,VWS V13.01,2013-10-09 09:02:00,
2013-10-09 05:07:00,44.1,19.5,30.00,NNW,334,0.0,0.0,37,0.00,,---,0.00,VWS V13.01,2013-10-09 09:07:00,
2013-10-09 05:12:00,44.2,19.6,30.00,NNW,334,0.0,0.0,37,0.00,,---,0.00,VWS V13.01,2013-10-09 09:12:00,
2013-10-09 05:18:00,44.4,19.8,30.00,West,263,0.0,0.0,37,0.00,,---,0.00,VWS V13.01,2013-10-09 09:18:00,
2013-10-09 05:23:00,44.4,19.8,30.00,West,263,0.0,0.0,37,0.00,,---,0.00,VWS V13.01,2013-10-09 09:23:00,
2013-10-09 05:28:00,44.6,20.0,30.00,West,263,0.0,0.0,37,0.00,,---,0.00,VWS V13.01,2013-10-09 09:28:00,
2013-10-09 05:33:00,44.8,19.5,30.00,West,263,0.0,0.0,36,0.00,,---,0.00,VWS V13.01,2013-10-09 09:33:00,
2013-10-09 05:38:00,44.8,18.8,30.00,West,263,0.0,0.0,35,0.00,,---,0.00,VWS V13.01,2013-10-09 09:38:00,
2013-10-09 05:43:00,45.0,19.0,30.00,West,263,0.0,0.0,35,0.00,,---,0.00,VWS V13.01,2013-10-09 09:43:00,
2013-10-09 05:48:00,45.1,18.5,30.00,West,263,0.0,0.0,34,0.00,,---,0.00,VWS V13.01,2013-10-09 09:48:00,
2013-10-09 05:53:00,45.1,17.1,30.00,West,263,0.0,0.0,32,0.00,,---,0.00,VWS V13.01,2013-10-09 09:53:00,
2013-10-09 05:58:00,45.3,17.2,30.00,West,263,0.0,0.0,32,0.00,,---,0.00,VWS V13.01,2013-10-09 09:58:00,
2013-10-09 06:03:00,45.3,17.2,30.00,West,263,0.0,0.0,32,0.00,,---,0.00,VWS V13.01,2013-10-09 10:03:00,
2013-10-09 06:09:00,45.1,16.3,30.00,West,263,0.0,0.0,31,0.00,,---,0.00,VWS V13.01,2013-10-09 10:09:00,
2013-10-09 06:14:00,45.0,16.2,30.03,West,263,0.0,0.0,31,0.00,,---,0.00,VWS V13.01,2013-10-09 10:14:00,
2013-10-09 06:19:00,45.0,16.2,30.03,West,263,0.0,0.0,31,0.00,,---,0.00,VWS V13.01,2013-10-09 10:19:00,
2013-10-09 06:24:00,44.8,16.0,30.03,West,262,0.0,0.0,31,0.00,,---,0.00,VWS V13.01,2013-10-09 10:24:00,
2013-10-09 06:29:00,44.6,15.9,30.03,West,263,0.0,0.0,31,0.00,,---,0.00,VWS V13.01,2013-10-09 10:29:00,
2013-10-09 06:34:00,44.6,15.9,30.03,West,263,0.0,0.0,31,0.00,,---,0.00,VWS V13.01,2013-10-09 10:34:00,
2013-10-09 06:39:00,44.6,15.9,30.03,West,263,0.0,0.0,31,0.00,,---,0.00,VWS V13.01,2013-10-09 10:39:00,
2013-10-09 06:44:00,44.4,15.7,30.03,West,263,0.0,0.0,31,0.00,,---,0.00,VWS V13.01,2013-10-09 10:44:00,
2013-10-09 06:49:00,44.2,16.3,30.03,West,263,0.0,0.0,32,0.00,,---,0.00,VWS V13.01,2013-10-09 10:49:00,
2013-10-09 06:54:00,44.1,16.1,30.03,West,263,0.0,0.0,32,0.00,,---,0.00,VWS V13.01,2013-10-09 10:54:00,
2013-10-09 06:59:00,44.1,16.8,30.03,West,263,0.0,0.0,33,0.00,,---,0.00,VWS V13.01,2013-10-09 10:59:00,
2013-10-09 07:04:00,43.9,16.7,30.03,West,263,0.0,0.0,33,0.00,,---,0.00,VWS V13.01,2013-10-09 11:04:00,
2013-10-09 07:09:00,43.9,16.7,30.03,West,263,0.0,0.0,33,0.00,,---,0.00,VWS V13.01,2013-10-09 11:09:00,
2013-10-09 07:15:00,43.7,16.5,30.03,West,263,0.0,0.0,33,0.00,,---,0.00,VWS V13.01,2013-10-09 11:15:00,
2013-10-09 07:20:00,43.7,16.5,30.03,West,263,0.0,0.0,33,0.00,,---,0.00,VWS V13.01,2013-10-09 11:20:00,
2013-10-09 07:25:00,43.7,16.5,30.03,West,263,0.0,0.0,33,0.00,,---,0.00,VWS V13.01,2013-10-09 11:25:00,
2013-10-09 07:30:00,43.9,16.7,30.03,West,263,0.0,0.0,33,0.00,,---,0.00,VWS V13.01,2013-10-09 11:30:00,
2013-10-09 07:35:00,43.9,16.7,30.03,West,262,0.0,0.0,33,0.00,,---,0.00,VWS V13.01,2013-10-09 11:35:00,
2013-10-09 07:40:00,44.1,17.5,30.03,SSE,164,0.0,0.0,34,0.00,,---,0.00,VWS V13.01,2013-10-09 11:40:00,
2013-10-09 07:45:00,44.2,17.7,30.03,SSE,167,0.0,0.0,34,0.00,,---,0.00,VWS V13.01,2013-10-09 11:45:00,
2013-10-09 07:50:00,44.4,18.5,30.03,SSE,167,0.0,0.0,35,0.00,,---,0.00,VWS V13.01,2013-10-09 11:50:00,
2013-10-09 07:55:00,44.6,18.7,30.03,ESE,122,0.0,0.0,35,0.00,,---,0.00,VWS V13.01,2013-10-09 11:55:00,
2013-10-09 08:00:00,45.1,19.1,30.06,SE,126,0.0,0.0,35,0.00,,---,0.00,VWS V13.01,2013-10-09 12:00:00,
2013-10-09 08:03:00,45.1,19.1,30.06,SE,126,0.0,0.0,35,0.00,,---,0.00,VWS V13.01,2013-10-09 12:03:00,
2013-10-09 08:08:00,45.3,19.3,30.06,SE,126,0.0,0.0,35,0.00,,---,0.00,VWS V13.01,2013-10-09 12:08:00,
2013-10-09 08:13:00,45.7,19.6,30.06,SE,126,0.0,0.0,35,0.00,,---,0.00,VWS V13.01,2013-10-09 12:13:00,
2013-10-09 08:18:00,46.0,19.9,30.06,SE,125,0.0,0.0,35,0.00,,---,0.00,VWS V13.01,2013-10-09 12:18:00,
2013-10-09 08:23:00,46.6,18.3,30.06,East,98,0.0,0.0,32,0.00,,---,0.00,VWS V13.01,2013-10-09 12:23:00,
2013-10-09 08:28:00,47.1,18.1,30.06,East,98,0.0,0.0,31,0.00,,---,0.00,VWS V13.01,2013-10-09 12:28:00,
2013-10-09 08:33:00,47.5,17.6,30.06,East,98,0.0,0.0,30,0.00,,---,0.00,VWS V13.01,2013-10-09 12:33:00,
2013-10-09 08:38:00,47.8,17.1,30.06,ESE,113,0.0,0.0,29,0.00,,---,0.00,VWS V13.01,2013-10-09 12:38:00,
2013-10-09 08:44:00,48.2,16.6,30.06,ESE,114,0.0,0.0,28,0.00,,---,0.00,VWS V13.01,2013-10-09 12:44:00,
2013-10-09 08:49:00,48.6,17.0,30.06,SE,136,0.0,0.0,28,0.00,,---,0.00,VWS V13.01,2013-10-09 12:49:00,
2013-10-09 08:54:00,48.9,17.3,30.06,ENE,68,0.0,0.0,28,0.00,,---,0.00,VWS V13.01,2013-10-09 12:54:00,
2013-10-09 08:59:00,49.3,16.7,30.06,North,0,0.0,0.0,27,0.00,,---,0.00,VWS V13.01,2013-10-09 12:59:00,
2013-10-09 09:04:00,49.5,16.9,30.06,North,0,0.0,0.0,27,0.00,,---,0.00,VWS V13.01,2013-10-09 13:04:00,
2013-10-09 09:09:00,49.8,17.2,30.06,North,0,0.0,0.0,27,0.00,,---,0.00,VWS V13.01,2013-10-09 13:09:00,
2013-10-09 09:14:00,50.0,17.4,30.06,East,98,0.0,0.0,27,0.00,,---,0.00,VWS V13.01,2013-10-09 13:14:00,
2013-10-09 09:19:00,50.4,17.7,30.06,East,90,0.0,0.0,27,0.00,,---,0.00,VWS V13.01,2013-10-09 13:19:00,
2013-10-09 09:24:00,50.7,17.1,30.06,East,97,0.0,0.0,26,0.00,,---,0.00,VWS V13.01,2013-10-09 13:24:00,
2013-10-09 09:29:00,51.1,15.6,30.06,NE,47,0.0,0.0,24,0.00,,---,0.00,VWS V13.01,2013-10-09 13:29:00,
2013-10-09 09:34:00,51.4,15.9,30.06,SSE,154,0.0,0.0,24,0.00,,---,0.00,VWS V13.01,2013-10-09 13:34:00,
2013-10-09 09:39:00,51.8,15.2,30.06,NW,321,0.0,0.0,23,0.00,,---,0.00,VWS V13.01,2013-10-09 13:39:00,
2013-10-09 09:44:00,52.2,15.5,30.06,NE,48,0.0,0.0,23,0.00,,---,0.00,VWS V13.01,2013-10-09 13:44:00,
2013-10-09 09:50:00,52.5,13.7,30.06,NE,48,0.0,0.0,21,0.00,,---,0.00,VWS V13.01,2013-10-09 13:50:00,
2013-10-09 09:55:00,52.9,14.0,30.06,SE,126,0.0,0.0,21,0.00,,---,0.00,VWS V13.01,2013-10-09 13:55:00,
2013-10-09 10:00:00,53.1,10.7,30.06,ENE,74,0.0,0.0,18,0.00,,---,0.00,VWS V13.01,2013-10-09 14:00:00,
2013-10-09 10:05:00,53.4,11.0,30.06,ENE,59,0.0,0.0,18,0.00,,---,0.00,VWS V13.01,2013-10-09 14:05:00,
2013-10-09 10:10:00,53.8,11.3,30.06,ENE,60,0.0,0.0,18,0.00,,---,0.00,VWS V13.01,2013-10-09 14:10:00,
2013-10-09 10:15:00,54.0,11.4,30.06,NE,54,0.0,0.0,18,0.00,,---,0.00,VWS V13.01,2013-10-09 14:15:00,
2013-10-09 10:20:00,54.1,11.6,30.06,ENE,76,0.0,0.0,18,0.00,,---,0.00,VWS V13.01,2013-10-09 14:20:00,
2013-10-09 10:25:00,54.3,11.7,30.06,SE,139,0.0,0.0,18,0.00,,---,0.00,VWS V13.01,2013-10-09 14:25:00,
2013-10-09 10:30:00,54.5,11.9,30.06,SSE,147,0.0,0.0,18,0.00,,---,0.00,VWS V13.01,2013-10-09 14:30:00,
2013-10-09 10:35:00,54.7,12.0,30.06,NE,40,0.0,0.0,18,0.00,,---,0.00,VWS V13.01,2013-10-09 14:35:00,
2013-10-09 10:40:00,55.0,12.3,30.06,NW,318,0.0,0.0,18,0.00,,---,0.00,VWS V13.01,2013-10-09 14:40:00,
2013-10-09 10:45:00,55.2,12.5,30.06,SSE,167,0.0,0.0,18,0.00,,---,0.00,VWS V13.01,2013-10-09 14:45:00,
2013-10-09 10:51:00,55.6,11.5,30.06,ENE,61,0.0,0.0,17,0.00,,---,0.00,VWS V13.01,2013-10-09 14:51:00,
2013-10-09 10:56:00,55.8,11.6,30.06,East,97,0.0,0.0,17,0.00,,---,0.00,VWS V13.01,2013-10-09 14:56:00,
2013-10-09 11:01:00,56.1,11.9,30.06,SSW,207,0.0,0.0,17,0.00,,---,0.00,VWS V13.01,2013-10-09 15:01:00,
2013-10-09 11:06:00,56.5,12.2,30.06,NE,46,0.0,0.0,17,0.00,,---,0.00,VWS V13.01,2013-10-09 15:06:00,
2013-10-09 11:11:00,56.7,12.4,30.06,ESE,122,0.0,0.0,17,0.00,,---,0.00,VWS V13.01,2013-10-09 15:11:00,
2013-10-09 11:16:00,57.2,12.8,30.06,NNW,341,0.0,0.0,17,0.00,,---,0.00,VWS V13.01,2013-10-09 15:16:00,
2013-10-09 11:21:00,57.2,8.4,30.06,North,349,0.0,0.0,14,0.00,,---,0.00,VWS V13.01,2013-10-09 15:21:00,
2013-10-09 11:26:00,57.4,12.9,30.06,ESE,117,0.0,0.0,17,0.00,,---,0.00,VWS V13.01,2013-10-09 15:26:00,
2013-10-09 11:31:00,57.7,8.9,30.06,ENE,68,0.0,0.0,14,0.00,,---,0.00,VWS V13.01,2013-10-09 15:31:00,
2013-10-09 11:36:00,57.7,8.9,30.06,ENE,75,0.0,0.0,14,0.00,,---,0.00,VWS V13.01,2013-10-09 15:36:00,
2013-10-09 11:41:00,57.7,8.9,30.06,ENE,72,0.0,0.0,14,0.00,,---,0.00,VWS V13.01,2013-10-09 15:41:00,
2013-10-09 11:46:00,58.1,9.2,30.03,East,100,0.0,0.0,14,0.00,,---,0.00,VWS V13.01,2013-10-09 15:46:00,
2013-10-09 11:51:00,58.3,9.3,30.03,ENE,75,0.0,0.0,14,0.00,,---,0.00,VWS V13.01,2013-10-09 15:51:00,
2013-10-09 11:57:00,58.6,9.6,30.03,NNW,339,0.0,0.0,14,0.00,,---,0.00,VWS V13.01,2013-10-09 15:57:00,
2013-10-09 12:02:00,58.6,9.6,30.06,SSE,165,0.0,0.0,14,0.00,,---,0.00,VWS V13.01,2013-10-09 16:02:00,
2013-10-09 12:07:00,58.5,9.5,30.06,East,93,0.0,0.0,14,0.00,,---,0.00,VWS V13.01,2013-10-09 16:07:00,
2013-10-09 12:12:00,58.1,9.2,30.06,East,81,0.0,0.0,14,0.00,,---,0.00,VWS V13.01,2013-10-09 16:12:00,
2013-10-09 12:17:00,58.1,9.2,30.03,ESE,120,0.0,0.0,14,0.00,,---,0.00,VWS V13.01,2013-10-09 16:17:00,
2013-10-09 12:22:00,58.5,9.5,30.03,ESE,111,0.0,0.0,14,0.00,,---,0.00,VWS V13.01,2013-10-09 16:22:00,
2013-10-09 12:27:00,58.6,9.6,30.03,NNW,341,0.0,0.0,14,0.00,,---,0.00,VWS V13.01,2013-10-09 16:27:00,
2013-10-09 12:32:00,58.5,9.5,30.03,NNW,346,0.0,0.0,14,0.00,,---,0.00,VWS V13.01,2013-10-09 16:32:00,
2013-10-09 12:37:00,58.1,9.2,30.03,WNW,289,0.0,0.0,14,0.00,,---,0.00,VWS V13.01,2013-10-09 16:37:00,
2013-10-09 12:42:00,57.9,9.0,30.03,ENE,70,0.0,0.0,14,0.00,,---,0.00,VWS V13.01,2013-10-09 16:42:00,
2013-10-09 12:47:00,58.1,9.2,30.03,ENE,70,0.0,0.0,14,0.00,,---,0.00,VWS V13.01,2013-10-09 16:47:00,
2013-10-09 12:52:00,58.1,9.2,30.03,ESE,110,0.0,0.0,14,0.00,,---,0.00,VWS V13.01,2013-10-09 16:52:00,
2013-10-09 12:58:00,58.5,9.5,30.03,NNE,17,0.0,0.0,14,0.00,,---,0.00,VWS V13.01,2013-10-09 16:58:00,
2013-10-09 13:03:00,58.8,9.8,30.03,North,357,0.0,0.0,14,0.00,,---,0.00,VWS V13.01,2013-10-09 17:03:00,
2013-10-09 13:08:00,59.2,10.0,30.03,SSE,149,0.0,0.0,14,0.00,,---,0.00,VWS V13.01,2013-10-09 17:08:00,
2013-10-09 13:13:00,59.5,10.3,30.03,NE,52,0.0,0.0,14,0.00,,---,0.00,VWS V13.01,2013-10-09 17:13:00,
2013-10-09 13:18:00,59.5,10.3,30.03,ESE,111,0.0,0.0,14,0.00,,---,0.00,VWS V13.01,2013-10-09 17:18:00,
2013-10-09 13:23:00,59.5,10.3,30.03,WNW,287,0.0,0.0,14,0.00,,---,0.00,VWS V13.01,2013-10-09 17:23:00,
2013-10-09 13:28:00,59.9,10.6,30.03,NE,49,0.0,0.0,14,0.00,,---,0.00,VWS V13.01,2013-10-09 17:28:00,
2013-10-09 13:33:00,60.6,11.2,30.03,SSE,152,0.0,0.0,14,0.00,,---,0.00,VWS V13.01,2013-10-09 17:33:00,
2013-10-09 13:38:00,60.8,11.3,30.03,ESE,105,0.0,0.0,14,0.00,,---,0.00,VWS V13.01,2013-10-09 17:38:00,
2013-10-09 13:43:00,60.8,11.3,30.03,ESE,113,0.0,0.0,14,0.00,,---,0.00,VWS V13.01,2013-10-09 17:43:00,
2013-10-09 13:48:00,60.8,11.3,30.03,ENE,74,0.0,0.0,14,0.00,,---,0.00,VWS V13.01,2013-10-09 17:48:00,
2013-10-09 13:53:00,61.0,11.5,30.03,ENE,74,0.0,2.7,14,0.00,,---,0.00,VWS V13.01,2013-10-09 17:53:00,
2013-10-09 13:59:00,60.8,11.3,30.03,West,272,0.0,2.7,14,0.00,,---,0.00,VWS V13.01,2013-10-09 17:59:00,
2013-10-09 14:04:00,60.6,11.2,30.03,East,84,0.0,0.0,14,0.00,,---,0.00,VWS V13.01,2013-10-09 18:04:00,
2013-10-09 14:09:00,60.4,11.0,30.03,ENE,75,0.0,0.0,14,0.00,,---,0.00,VWS V13.01,2013-10-09 18:09:00,
2013-10-09 14:14:00,60.3,10.9,30.03,ESE,120,0.0,0.0,14,0.00,,---,0.00,VWS V13.01,2013-10-09 18:14:00,
2013-10-09 14:19:00,60.3,10.9,30.03,ESE,108,0.0,0.0,14,0.00,,---,0.00,VWS V13.01,2013-10-09 18:19:00,
2013-10-09 14:24:00,60.4,11.0,30.03,East,98,0.0,0.0,14,0.00,,---,0.00,VWS V13.01,2013-10-09 18:24:00,
2013-10-09 14:29:00,60.4,11.0,30.00,East,86,0.0,0.0,14,0.00,,---,0.00,VWS V13.01,2013-10-09 18:29:00,
2013-10-09 14:34:00,60.6,11.2,30.00,ESE,103,0.0,0.0,14,0.00,,---,0.00,VWS V13.01,2013-10-09 18:34:00,
2013-10-09 14:39:00,61.0,11.5,30.00,ESE,114,0.0,0.0,14,0.00,,---,0.00,VWS V13.01,2013-10-09 18:39:00,
2013-10-09 14:44:00,61.0,11.5,30.00,ENE,61,0.0,0.0,14,0.00,,---,0.00,VWS V13.01,2013-10-09 18:44:00,
2013-10-09 14:49:00,60.8,11.3,30.00,NW,304,0.0,0.0,14,0.00,,---,0.00,VWS V13.01,2013-10-09 18:49:00,
2013-10-09 14:54:00,60.6,11.2,30.00,South,169,0.0,0.0,14,0.00,,---,0.00,VWS V13.01,2013-10-09 18:54:00,
2013-10-09 15:00:00,60.4,11.0,30.00,South,170,0.0,0.0,14,0.00,,---,0.00,VWS V13.01,2013-10-09 19:00:00,
2013-10-09 15:05:00,60.4,11.0,30.00,NNE,22,0.0,0.0,14,0.00,,---,0.00,VWS V13.01,2013-10-09 19:05:00,
2013-10-09 15:10:00,60.6,11.2,30.00,NNE,22,0.0,0.0,14,0.00,,---,0.00,VWS V13.01,2013-10-09 19:10:00,
2013-10-09 15:15:00,60.6,11.2,30.00,NNW,346,0.0,0.0,14,0.00,,---,0.00,VWS V13.01,2013-10-09 19:15:00,
2013-10-09 15:20:00,60.8,11.3,30.00,NNW,346,0.0,0.0,14,0.00,,---,0.00,VWS V13.01,2013-10-09 19:20:00,
2013-10-09 15:25:00,60.8,11.3,30.00,SE,143,0.0,0.0,14,0.00,,---,0.00,VWS V13.01,2013-10-09 19:25:00,
2013-10-09 15:30:00,60.8,11.3,30.00,ENE,75,0.0,0.0,14,0.00,,---,0.00,VWS V13.01,2013-10-09 19:30:00,
2013-10-09 15:35:00,60.8,11.3,30.00,ENE,71,0.0,0.0,14,0.00,,---,0.00,VWS V13.01,2013-10-09 19:35:00,
2013-10-09 15:40:00,60.6,11.2,30.00,WSW,247,0.0,0.0,14,0.00,,---,0.00,VWS V13.01,2013-10-09 19:40:00,
2013-10-09 15:46:00,60.6,11.2,30.00,NE,47,0.0,0.0,14,0.00,,---,0.00,VWS V13.01,2013-10-09 19:46:00,
2013-10-09 15:51:00,60.4,11.0,30.00,WSW,241,0.0,0.0,14,0.00,,---,0.00,VWS V13.01,2013-10-09 19:51:00,
2013-10-09 15:56:00,60.4,11.0,30.00,ENE,61,0.0,0.0,14,0.00,,---,0.00,VWS V13.01,2013-10-09 19:56:00,
2013-10-09 16:01:00,60.4,11.0,30.00,ESE,110,0.0,0.0,14,0.00,,---,0.00,VWS V13.01,2013-10-09 20:01:00,
2013-10-09 16:06:00,60.3,10.9,30.00,South,175,0.0,0.0,14,0.00,,---,0.00,VWS V13.01,2013-10-09 20:06:00,
2013-10-09 16:11:00,60.3,10.9,30.00,South,175,0.0,0.0,14,0.00,,---,0.00,VWS V13.01,2013-10-09 20:11:00,
2013-10-09 16:16:00,60.1,10.8,30.00,ENE,64,0.0,0.0,14,0.00,,---,0.00,VWS V13.01,2013-10-09 20:16:00,
2013-10-09 16:21:00,60.1,10.8,30.00,ENE,64,0.0,0.0,14,0.00,,---,0.00,VWS V13.01,2013-10-09 20:21:00,
2013-10-09 16:26:00,60.1,10.8,30.00,ENE,64,0.0,0.0,14,0.00,,---,0.00,VWS V13.01,2013-10-09 20:26:00,
2013-10-09 16:31:00,59.9,10.6,30.00,ENE,64,0.0,0.0,14,0.00,,---,0.00,VWS V13.01,2013-10-09 20:31:00,
2013-10-09 16:37:00,59.9,10.6,30.00,West,272,0.0,0.0,14,0.00,,---,0.00,VWS V13.01,2013-10-09 20:37:00,
2013-10-09 16:42:00,59.7,10.5,30.00,West,272,0.0,0.0,14,0.00,,---,0.00,VWS V13.01,2013-10-09 20:42:00,
2013-10-09 16:47:00,59.7,10.5,30.00,West,272,0.0,0.0,14,0.00,,---,0.00,VWS V13.01,2013-10-09 20:47:00,
2013-10-09 16:52:00,59.7,10.5,30.00,West,272,0.0,0.0,14,0.00,,---,0.00,VWS V13.01,2013-10-09 20:52:00,
2013-10-09 16:57:00,59.5,10.3,30.00,West,272,0.0,0.0,14,0.00,,---,0.00,VWS V13.01,2013-10-09 20:57:00,
2013-10-09 17:02:00,59.5,10.3,30.00,West,272,0.0,0.0,14,0.00,,---,0.00,VWS V13.01,2013-10-09 21:02:00,
2013-10-09 17:07:00,59.4,10.2,30.00,West,272,0.0,0.0,14,0.00,,---,0.00,VWS V13.01,2013-10-09 21:07:00,
2013-10-09 17:12:00,59.2,10.0,30.00,West,272,0.0,0.0,14,0.00,,---,0.00,VWS V13.01,2013-10-09 21:12:00,
2013-10-09 17:17:00,58.8,14.1,30.00,West,272,0.0,0.0,17,0.00,,---,0.00,VWS V13.01,2013-10-09 21:17:00,
2013-10-09 17:23:00,58.6,14.0,30.00,West,272,0.0,0.0,17,0.00,,---,0.00,VWS V13.01,2013-10-09 21:23:00,
2013-10-09 17:28:00,58.5,13.8,30.00,West,272,0.0,0.0,17,0.00,,---,0.00,VWS V13.01,2013-10-09 21:28:00,
2013-10-09 17:33:00,58.1,13.5,29.97,West,272,0.0,0.0,17,0.00,,---,0.00,VWS V13.01,2013-10-09 21:33:00,
2013-10-09 17:38:00,57.9,13.4,29.97,West,272,0.0,0.0,17,0.00,,---,0.00,VWS V13.01,2013-10-09 21:38:00,
2013-10-09 17:43:00,57.7,13.2,29.97,West,272,0.0,0.0,17,0.00,,---,0.00,VWS V13.01,2013-10-09 21:43:00,
2013-10-09 17:48:00,57.4,12.9,29.97,West,272,0.0,0.0,17,0.00,,---,0.00,VWS V13.01,2013-10-09 21:48:00,
2013-10-09 17:53:00,57.2,12.8,29.97,West,272,0.0,0.0,17,0.00,,---,0.00,VWS V13.01,2013-10-09 21:53:00,
2013-10-09 17:58:00,56.8,12.5,29.97,West,272,0.0,0.0,17,0.00,,---,0.00,VWS V13.01,2013-10-09 21:58:00,
2013-10-09 18:04:00,56.7,12.4,29.97,West,272,0.0,0.0,17,0.00,,---,0.00,VWS V13.01,2013-10-09 22:04:00,
2013-10-09 18:09:00,56.3,12.1,29.97,West,272,0.0,0.0,17,0.00,,---,0.00,VWS V13.01,2013-10-09 22:09:00,
2013-10-09 18:14:00,56.3,15.8,29.97,West,272,0.0,0.0,20,0.00,,---,0.00,VWS V13.01,2013-10-09 22:14:00,
2013-10-09 18:19:00,55.9,15.5,29.97,West,272,0.0,0.0,20,0.00,,---,0.00,VWS V13.01,2013-10-09 22:19:00,
2013-10-09 18:24:00,55.9,15.5,29.97,West,272,0.0,0.0,20,0.00,,---,0.00,VWS V13.01,2013-10-09 22:24:00,
2013-10-09 18:29:00,55.8,15.3,29.97,West,272,0.0,0.0,20,0.00,,---,0.00,VWS V13.01,2013-10-09 22:29:00,
2013-10-09 18:34:00,55.6,15.2,29.97,West,272,0.0,0.0,20,0.00,,---,0.00,VWS V13.01,2013-10-09 22:34:00,
2013-10-09 18:40:00,55.4,15.0,29.97,West,272,0.0,0.0,20,0.00,,---,0.00,VWS V13.01,2013-10-09 22:40:00,
2013-10-09 18:45:00,55.2,14.9,29.97,West,272,0.0,0.0,20,0.00,,---,0.00,VWS V13.01,2013-10-09 22:45:00,
2013-10-09 18:50:00,55.0,14.7,29.97,West,272,0.0,0.0,20,0.00,,---,0.00,VWS V13.01,2013-10-09 22:50:00,
2013-10-09 18:55:00,54.9,14.6,29.97,West,272,0.0,0.0,20,0.00,,---,0.00,VWS V13.01,2013-10-09 22:55:00,
2013-10-09 19:00:00,54.7,17.6,29.97,West,272,0.0,0.0,23,0.00,,---,0.00,VWS V13.01,2013-10-09 23:00:00,
2013-10-09 19:05:00,54.5,17.5,29.97,West,272,0.0,0.0,23,0.00,,---,0.00,VWS V13.01,2013-10-09 23:05:00,
2013-10-09 19:10:00,54.1,17.2,29.97,West,272,0.0,0.0,23,0.00,,---,0.00,VWS V13.01,2013-10-09 23:10:00,
2013-10-09 19:15:00,54.0,17.0,29.97,West,272,0.0,0.0,23,0.00,,---,0.00,VWS V13.01,2013-10-09 23:15:00,
2013-10-09 19:20:00,53.8,18.8,29.97,West,272,0.0,0.0,25,0.00,,---,0.00,VWS V13.01,2013-10-09 23:20:00,
2013-10-09 19:26:00,53.6,18.6,29.97,West,272,0.0,0.0,25,0.00,,---,0.00,VWS V13.01,2013-10-09 23:26:00,
2013-10-09 19:31:00,53.4,19.4,29.97,West,272,0.0,0.0,26,0.00,,---,0.00,VWS V13.01,2013-10-09 23:31:00,
2013-10-09 19:36:00,53.2,19.3,29.97,West,272,0.0,0.0,26,0.00,,---,0.00,VWS V13.01,2013-10-09 23:36:00,
2013-10-09 19:41:00,53.1,19.1,29.97,West,272,0.0,0.0,26,0.00,,---,0.00,VWS V13.01,2013-10-09 23:41:00,
2013-10-09 19:46:00,52.9,19.0,29.97,West,272,0.0,0.0,26,0.00,,---,0.00,VWS V13.01,2013-10-09 23:46:00,
2013-10-09 19:51:00,52.7,19.7,29.97,West,272,0.0,0.0,27,0.00,,---,0.00,VWS V13.01,2013-10-09 23:51:00,
2013-10-09 19:56:00,52.5,19.5,29.97,West,272,0.0,0.0,27,0.00,,---,0.00,VWS V13.01,2013-10-09 23:56:00,
2013-10-09 20:02:00,52.3,19.4,29.97,West,272,0.0,0.0,27,0.00,,---,0.00,VWS V13.01,2013-10-10 00:02:00,
2013-10-09 20:07:00,52.3,19.4,29.97,West,272,0.0,0.0,27,0.00,,---,0.00,VWS V13.01,2013-10-10 00:07:00,
2013-10-09 20:12:00,52.2,20.1,29.97,West,272,0.0,0.0,28,0.00,,---,0.00,VWS V13.01,2013-10-10 00:12:00,
2013-10-09 20:17:00,52.2,20.1,29.97,West,272,0.0,0.0,28,0.00,,---,0.00,VWS V13.01,2013-10-10 00:17:00,
2013-10-09 20:22:00,52.2,20.1,29.97,West,272,0.0,0.0,28,0.00,,---,0.00,VWS V13.01,2013-10-10 00:22:00,
2013-10-09 20:27:00,52.0,19.9,29.97,West,272,0.0,0.0,28,0.00,,---,0.00,VWS V13.01,2013-10-10 00:27:00,
2013-10-09 20:32:00,51.8,19.8,29.97,West,272,0.0,0.0,28,0.00,,---,0.00,VWS V13.01,2013-10-10 00:32:00,
2013-10-09 20:37:00,51.8,19.8,29.97,West,272,0.0,0.0,28,0.00,,---,0.00,VWS V13.01,2013-10-10 00:37:00,
2013-10-09 20:43:00,51.6,19.6,29.97,West,272,0.0,0.0,28,0.00,,---,0.00,VWS V13.01,2013-10-10 00:43:00,
2013-10-09 20:48:00,51.6,19.6,29.97,West,272,0.0,0.0,28,0.00,,---,0.00,VWS V13.01,2013-10-10 00:48:00,
2013-10-09 20:53:00,51.6,19.6,29.97,West,272,0.0,0.0,28,0.00,,---,0.00,VWS V13.01,2013-10-10 00:53:00,
2013-10-09 20:58:00,51.4,19.4,29.97,West,272,0.0,0.0,28,0.00,,---,0.00,VWS V13.01,2013-10-10 00:58:00,
2013-10-09 21:03:00,51.3,18.4,29.97,West,272,0.0,0.0,27,0.00,,---,0.00,VWS V13.01,2013-10-10 01:03:00,
2013-10-09 21:08:00,51.3,19.3,29.97,West,272,0.0,0.0,28,0.00,,---,0.00,VWS V13.01,2013-10-10 01:08:00,
2013-10-09 21:14:00,51.1,19.1,29.97,West,272,0.0,0.0,28,0.00,,---,0.00,VWS V13.01,2013-10-10 01:14:00,
2013-10-09 21:19:00,51.1,19.1,29.97,West,272,0.0,0.0,28,0.00,,---,0.00,VWS V13.01,2013-10-10 01:19:00,
2013-10-09 21:24:00,50.9,19.0,29.97,West,272,0.0,0.0,28,0.00,,---,0.00,VWS V13.01,2013-10-10 01:24:00,
2013-10-09 21:29:00,50.7,18.8,29.97,West,272,0.0,0.0,28,0.00,,---,0.00,VWS V13.01,2013-10-10 01:29:00,
2013-10-09 21:34:00,50.5,18.7,29.97,West,272,0.0,0.0,28,0.00,,---,0.00,VWS V13.01,2013-10-10 01:34:00,
2013-10-09 21:39:00,50.5,18.7,29.97,West,272,0.0,0.0,28,0.00,,---,0.00,VWS V13.01,2013-10-10 01:39:00,
2013-10-09 21:44:00,50.4,18.5,29.97,West,272,0.0,0.0,28,0.00,,---,0.00,VWS V13.01,2013-10-10 01:44:00,
2013-10-09 21:50:00,50.2,18.4,29.97,West,272,0.0,0.0,28,0.00,,---,0.00,VWS V13.01,2013-10-10 01:50:00,
2013-10-09 21:55:00,50.2,18.4,29.97,West,272,0.0,0.0,28,0.00,,---,0.00,VWS V13.01,2013-10-10 01:55:00,
2013-10-09 22:00:00,50.2,18.4,29.97,West,272,0.0,0.0,28,0.00,,---,0.00,VWS V13.01,2013-10-10 02:00:00,
2013-10-09 22:05:00,50.2,18.4,29.97,West,272,0.0,0.0,28,0.00,,---,0.00,VWS V13.01,2013-10-10 02:05:00,
2013-10-09 22:10:00,50.0,18.2,29.97,West,272,0.0,0.0,28,0.00,,---,0.00,VWS V13.01,2013-10-10 02:10:00,
2013-10-09 22:15:00,49.8,18.0,29.97,West,272,0.0,0.0,28,0.00,,---,0.00,VWS V13.01,2013-10-10 02:15:00,
2013-10-09 22:21:00,49.6,17.9,29.97,West,272,0.0,0.0,28,0.00,,---,0.00,VWS V13.01,2013-10-10 02:21:00,
2013-10-09 22:26:00,49.5,18.5,29.97,West,272,0.0,0.0,29,0.00,,---,0.00,VWS V13.01,2013-10-10 02:26:00,
2013-10-09 22:31:00,49.3,18.4,29.97,West,272,0.0,0.0,29,0.00,,---,0.00,VWS V13.01,2013-10-10 02:31:00,
2013-10-09 22:36:00,49.1,18.2,29.97,West,272,0.0,0.0,29,0.00,,---,0.00,VWS V13.01,2013-10-10 02:36:00,
2013-10-09 22:41:00,49.1,18.2,29.97,West,272,0.0,0.0,29,0.00,,---,0.00,VWS V13.01,2013-10-10 02:41:00,
2013-10-09 22:46:00,48.9,18.9,29.97,West,272,0.0,0.0,30,0.00,,---,0.00,VWS V13.01,2013-10-10 02:46:00,
2013-10-09 22:52:00,48.7,18.7,29.97,West,272,0.0,0.0,30,0.00,,---,0.00,VWS V13.01,2013-10-10 02:52:00,
2013-10-09 22:57:00,48.7,18.7,29.97,West,272,0.0,0.0,30,0.00,,---,0.00,VWS V13.01,2013-10-10 02:57:00,
2013-10-09 23:02:00,48.6,18.5,29.97,West,272,0.0,0.0,30,0.00,,---,0.00,VWS V13.01,2013-10-10 03:02:00,
2013-10-09 23:07:00,48.4,18.4,29.97,West,272,0.0,0.0,30,0.00,,---,0.00,VWS V13.01,2013-10-10 03:07:00,
2013-10-09 23:12:00,48.4,18.4,29.97,West,272,0.0,0.0,30,0.00,,---,0.00,VWS V13.01,2013-10-10 03:12:00,
2013-10-09 23:17:00,48.2,19.0,29.97,West,272,0.0,0.0,31,0.00,,---,0.00,VWS V13.01,2013-10-10 03:17:00,
2013-10-09 23:22:00,48.0,18.8,29.97,West,272,0.0,0.0,31,0.00,,---,0.00,VWS V13.01,2013-10-10 03:22:00,
2013-10-09 23:28:00,48.0,18.8,29.97,West,272,0.0,0.0,31,0.00,,---,0.00,VWS V13.01,2013-10-10 03:28:00,
2013-10-09 23:33:00,47.8,19.4,29.97,West,272,0.0,0.0,32,0.00,,---,0.00,VWS V13.01,2013-10-10 03:33:00,
2013-10-09 23:38:00,47.8,19.4,29.97,West,272,0.0,0.0,32,0.00,,---,0.00,VWS V13.01,2013-10-10 03:38:00,
2013-10-09 23:43:00,47.7,19.3,29.97,West,272,0.0,0.0,32,0.00,,---,0.00,VWS V13.01,2013-10-10 03:43:00,
2013-10-09 23:48:00,47.7,19.3,29.97,West,272,0.0,0.0,32,0.00,,---,0.00,VWS V13.01,2013-10-10 03:48:00,
2013-10-09 23:54:00,47.7,19.3,29.97,West,272,0.0,0.0,32,0.00,,---,0.00,VWS V13.01,2013-10-10 03:54:00,
2013-10-09 23:59:00,47.7,19.3,29.97,West,272,0.0,0.0,32,0.00,,---,0.00,VWS V13.01,2013-10-10 03:59:00,